Regional Weather Roundup
Issued by NWS

Home | Current Version | Previous Version | Text Only | Print | Product List | Glossary Off
Versions: 1 2 3 4 5 6 7 8 9 10 11 12 13 14 15 16 17 18 19 20 21 22 23 24 25 26 27 28 29 30 31 32 33 34 35 36 37 38 39 40 41 42 43 44 45 46 47 48 49 50

000
ASUS43 KMPX 220710
RWRMN
WEATHER ROUNDUP FOR MINNESOTA
NATIONAL WEATHER SERVICE TWIN CITIES/CHANHASSEN MN
100 AM CST MON JAN 22 2018


NOTE: "FAIR" INDICATES FEW OR NO CLOUDS BELOW 12,000 FEET WITH NO
SIGNIFICANT WEATHER AND/OR OBSTRUCTIONS TO VISIBILITY. N/A MEANS
CURRENT SKY AND/OR WEATHER CONDITIONS ARE NOT AVAILABLE.

MNZ060>063-068>070-220800-
   Twin Cities Metro

CITY           SKY/WX    TMP DP  RH WIND       PRES   REMARKS
TWIN CITIES    CLOUDY    35  30  82 N10       29.90F WCI  27
ST PAUL        CLOUDY    35  29  78 N10       29.91F WCI  27
CRYSTAL        CLOUDY    34  26  72 N10       29.90F WCI  26
BLAINE         FAIR      34  30  86 NE10G22   29.92F WCI  26
LAKEVILLE      MOCLDY    36  30  80 NE8       29.88F
EDEN PRAIRIE   CLOUDY    35  28  75 NE13G23   29.88F WCI  26
SOUTH ST PAUL  MOCLDY    36  29  76 N7        29.90F
LAKE ELMO      FAIR      34  30  86 N8G16     29.91F WCI  27
$$
MNZ001>005-007-008-013>017-022>024-027-028-220800-
   Northwest Minnesota

CITY           SKY/WX    TMP DP  RH WIND       PRES   REMARKS
BEMIDJI        CLOUDY    24  24  97 N5        30.03F WCI  19
HALLOCK        CLOUDY    21  19  93 NE3       30.12S
ROSEAU         CLOUDY    25  19  80 N5        30.10F WCI  19
WARROAD        CLOUDY    25  19  80 N3        30.11S
THIEF RVR FALL CLOUDY    23  21  92 E7        30.09F WCI  15
CROOKSTON      CLOUDY    25  23  93 NE3       30.10F
FOSSTON        CLOUDY    23  21  93 NE6       30.05F WCI  16
DETROIT LAKES  CLOUDY    27  27 100 NE8       30.01F WCI  18
MOORHEAD       CLOUDY    25  21  86 N12       30.05F WCI  14
PARK RAPIDS    CLOUDY    25  22  88 VRB6      29.99F FOG     WCI  18
MAHNOMEN       CLOUDY    24  24  96 NE7       30.03F WCI  16
$$
MNZ006-009>011-018-025>026-220800-
   North Central Minnesota

CITY           SKY/WX    TMP DP  RH WIND       PRES   REMARKS
BAUDETTE       CLOUDY    25  24  96 NE5       30.08F WCI  19
FLAG ISLAND    CLOUDY    21  19  93 NE5       30.11S FOG     WCI  15
INTL FALLS     CLOUDY    22  20  92 NE7       30.08F WCI  13
WASKISH        CLOUDY    27  25  93 CALM      30.06F
BIG FORK       CLOUDY    27  25  93 N3        30.04F FOG
LONGVILLE      CLOUDY    25  25 100 NE3       30.01F
GRAND RAPIDS   CLOUDY    26  25  96 NE5       30.04F FOG     WCI  20
CRANE LAKE     CLOUDY    21  19  93 CALM      30.12S
ORR            CLOUDY    25  23  93 CALM      30.04F FOG
COOK           FOG       27  25  93 CALM      30.05F VSB 3/4
WALKER         CLOUDY    25  24  96 NE5       30.02F FOG     WCI  19
$$
MNZ012-019>021-037-220800-
   Northeast Minnesota

CITY           SKY/WX    TMP DP  RH WIND       PRES   REMARKS
DULUTH         LGT SNOW  27  26  96 E20G28    30.00F VSB 1   WCI  13
HIBBING        CLOUDY    26  24  92 NE5       30.03F WCI  20
EVELETH        CLOUDY    25  22  87 E3        30.04F
DULUTH HARBOR  CLOUDY    30  28  93 NE26      30.05F WCI  16
TWO HARBORS    CLOUDY    28  25  86 NE12G18   30.03F HAZE    WCI  18
SILVER BAY     MIX PCPN  25  25 100 NE9       30.05F WCI  15
GRAND MARAIS     N/A     24  19  81 VRB7      30.13F WCI  16
G MARAIS ARPRT CLOUDY    16  12  86 N8        30.05F WCI   5
$$
MNZ029>031-032-039>041-046>048-054>057-064-220800-
   West Central Minnesota

CITY           SKY/WX    TMP DP  RH WIND       PRES   REMARKS
FERGUS FALLS   CLOUDY    25  25 100 NE10      30.00F WCI  15
WHEATON        CLOUDY    25  23  93 N10       30.03F WCI  15
MORRIS         CLOUDY    27  25  93 N14       29.96F FOG     WCI  15
ALEXANDRIA     CLOUDY    25  24  96 NE12      29.96F FOG     WCI  14
ELBOW LAKE     CLOUDY    25  24  97 E12       29.99S WCI  14
WADENA         CLOUDY    23  23 100 NE13      29.98F FOG     WCI  11
GLENWOOD       CLOUDY    25  25 100 NE14      29.94F FOG     WCI  13
APPLETON       CLOUDY    27  25  93 N13       29.95F WCI  16
BENSON         CLOUDY    27  25  93 NE9       29.96F WCI  17
ORTONVILLE     CLOUDY    27  23  86 N14       29.96F FOG     WCI  15
MADISON        MOCLDY    28  28 100 N14       29.94F WCI  17
WILLMAR        FAIR      28  27  93 NE17      29.93F WCI  16
$$
MNZ033>034-036-042>043-049>051-058-059-220800-
   Central Minnesota

CITY           SKY/WX    TMP DP  RH WIND       PRES   REMARKS
ST CLOUD       MOCLDY    29  26  89 NE7       29.94F WCI  22
SAUK CENTRE      N/A     25  24  95 N12G18    29.95F FOG     WCI  14
PAYNESVILLE    FAIR      27  26  94 N15       29.92F WCI  15
AITKIN         CLOUDY    27  25  93 N7        29.97F WCI  19
PINE RIVER     CLOUDY    23  21  93 NE9       30.03F FOG     WCI  13
BRAINERD       CLOUDY    27  25  92 NE12      29.98F FOG     WCI  17
STAPLES        CLOUDY    25  25 100 NE7       29.98F FOG     WCI  17
LONG PRAIRIE   CLOUDY    25  23  93 N10       29.97S FOG     WCI  15
LITTLE FALLS   CLOUDY    28  21  74 N3        29.98S
LITCHFIELD     FAIR      32  28  86 N10       29.92F WCI  24
BUFFALO        CLOUDY    32  28  83 N13G18    29.93F WCI  22
MAPLE LAKE     MOCLDY    32  29  90 MISG      29.93F
HUTCHINSON     FLURRIES  34  30  85 N15       29.90F WCI  24
$$
MNZ037-044-045-052-053-220800-
   East Central Minnesota

CITY           SKY/WX    TMP DP  RH WIND       PRES   REMARKS
PRINCETON      CLOUDY    30  28  93 NE10      29.95F WCI  21
MORA           CLOUDY    30  28  93 NE7       29.99F WCI  23
CAMBRIDGE      CLOUDY    32  27  80 N10G16    29.95F WCI  24
RUSH CITY      CLOUDY    31  28  90 NE10G17   29.96F WCI  22
MOOSE LAKE     CLOUDY    32  28  86 NE8       29.98F WCI  25
HINCKLEY       CLOUDY    32  30  93 NE6       29.98F WCI  26
CLOQUET        LGT SNOW  28  27  93 E12G23    29.99F WCI  18
MCGREGOR       CLOUDY    30  28  93 NE10      29.99F WCI  21
$$
MNZ071>073-080-081-089-090-097-098-220800-
   Southwest Minnesota

CITY           SKY/WX    TMP DP  RH WIND       PRES   REMARKS
MONTEVIDEO     CLOUDY    30  27  86 N8        29.93F WCI  23
GRANITE FALLS  CLOUDY    33  29  85 N15       29.92F WCI  23
CANBY          CLOUDY    28  27  95 NW14      29.94F WCI  17
MARSHALL       LGT SNOW  30  28  93 NE13      29.90F FOG     WCI  20
REDWOOD FALLS  CLOUDY    33  28  81 N10G22    29.89F WCI  25
OLIVIA         CLOUDY    32  28  86 NE13      29.90F WCI  22
PIPESTONE      CLOUDY    28  27  93 NE22G28   29.81F WCI  15
WINDOM         CLOUDY    34  18  51 N18G33    29.79F WCI  23
WORTHINGTON    CLOUDY    32  28  85 NE24G30   29.79R WCI  19
JACKSON        CLOUDY    32  30  93 NE20G25   29.79R WCI  20
TRACY          FLURRIES  32  31  96 N17       29.85F WCI  21
SLAYTON        LGT SNOW  31  29  95 N23G31    29.81F WCI  17
$$
MNZ065>067-074>077-082>085-091>093-220800-
   South Central Minnesota

CITY           SKY/WX    TMP DP  RH WIND       PRES   REMARKS
MANKATO        CLOUDY    35  29  78 NE16      29.84F WCI  25
NEW ULM        CLOUDY    34  27  75 NE13G18   29.87R WCI  25
ST JAMES       CLOUDY    34  28  80 N21       29.81F WCI  22
FAIRMONT       CLOUDY    35  30  82 NE17      29.79R WCI  25
GLENCOE        CLOUDY    34  30  86 N9        29.88F WCI  26
FARIBAULT      CLOUDY    36  30  80 N12       29.85F
OWATONNA       CLOUDY    36  30  80 NE15      29.82F
WASECA         CLOUDY    36  32  87 NE16G22   29.82F
ALBERT LEA     CLOUDY    34  34 100 NE18G25   29.74F WCI  23
$$
MNZ078>079-086>088-094>096-220800-
   Southeast Minnesota

CITY           SKY/WX    TMP DP  RH WIND       PRES   REMARKS
ROCHESTER      LGT RAIN  34  31  88 NE17      29.80F WCI  23
RED WING       CLOUDY    39  28  65 E7G16     29.87F
STANTON        MOCLDY    37  31  81 NE10      29.85F
DODGE CENTER   CLOUDY    36  30  80 NE14      29.80F
WINONA         CLOUDY    37  32  81 NE6       29.82F
AUSTIN         CLOUDY    36  30  80 NE13G21   29.75F
PRESTON        CLOUDY    36  32  85 NE13      29.78F
$$
ABBREVIATIONS USED IN REMARKS
   TC - TEMPERATURES IN CELSIUS
  WCI - WIND CHILL INDEX
   HX - HEAT INDEX
  VSB - VISIBILITY
$$




USA.gov is the U.S. government's official web portal to all federal, state and local government web resources and services.